Pittsfield, IL

1:23 AM CST on December 08, 2016 (GMT -0600)
Pittsfield Penstone Municipal

Weather History for KPPQ - September, 2013

Change the Weather History Date:

Friday, September 27, 2013

  Actual Average (KUIN) Record (KUIN)
Temperature  
Mean Temperature 70 °F 62 °F  
Max Temperature 83 °F 72 °F 92 °F (1929)
Min Temperature 57 °F 51 °F 33 °F (1942)
Degree Days  
Heating Degree Days 0 6  
Month to date heating degree days 65  
Since 1 July heating degree days 70  
Cooling Degree Days 4 2  
Month to date cooling degree days 117  
Year to date cooling degree days 1070  
Growing Degree Days 20 (Base 50)    
Moisture  
Dew Point 56 °F    
Average Humidity 64    
Maximum Humidity 90    
Minimum Humidity 37    
Precipitation  
Precipitation 0.00 in 0.12 in 2.24 in (1923)
Month to date precipitation 2.99  
Year to date precipitation 28.74  
Sea Level Pressure  
Sea Level Pressure 30.06 in    
Wind  
Wind Speed 5 mph (SE)    
Max Wind Speed 13 mph    
Max Gust Speed 20 mph    
Visibility 10 miles    
Events      
T = Trace of Precipitation, MM = Missing Value Source: NWS Daily Summary

Daily Weather History Graph

Daily Weather History Graph

Search for Another Location

Airport or City:

Trip Planner

Search our weather history database for the weather conditions in past years. The results will help you decide how hot, cold, wet, or windy it might be!

Date:

Astronomy

Sep. 27, 2013 Rise Set
Actual Time 6:55 AM CDT 6:51 PM CDT
Civil Twilight 6:28 AM CDT 7:18 PM CDT
Nautical Twilight 5:57 AM CDT 7:49 PM CDT
Astronomical Twilight 5:25 AM CDT 8:21 PM CDT
Moon No Moon Rise 2:29 PM CDT (9/27)
Length of Visible Light 12h 49m
Length of Day
11h 55m
Last Quarter, 45% of the Moon is Illuminated
Sep 27
Last Quarter
Oct 4
New
Oct 11
First Quarter
Oct 18
Full
Oct 26
Last Quarter

Hourly Weather History & Observations

Time (CDT) Temp. Heat Index Dew Point Humidity Pressure Visibility Wind Dir Wind Speed Gust Speed Precip Events Conditions
12:15 AM 63.7 °F - 57.4 °F 80% 30.04 in 10.0 mi Calm Calm - N/A   Clear
12:35 AM 63.3 °F - 57.2 °F 80% 30.04 in 10.0 mi ESE 3.5 mph - N/A   Clear
12:55 AM 63.7 °F - 57.2 °F 79% 30.04 in 10.0 mi ESE 3.5 mph - N/A   Clear
1:15 AM 63.3 °F - 57.2 °F 80% 30.05 in 10.0 mi ESE 4.6 mph - N/A   Clear
1:35 AM 62.6 °F - 56.7 °F 81% 30.05 in 10.0 mi ESE 4.6 mph - N/A   Clear
1:55 AM 62.6 °F - 56.7 °F 81% 30.05 in 10.0 mi SE 4.6 mph - N/A   Clear
2:15 AM 62.6 °F - 56.5 °F 80% 30.05 in 10.0 mi SE 4.6 mph - N/A   Clear
2:35 AM 62.6 °F - 56.3 °F 80% 30.05 in 10.0 mi ESE 4.6 mph - N/A   Clear
2:55 AM 61.5 °F - 56.3 °F 83% 30.05 in 10.0 mi SE 3.5 mph - N/A   Clear
3:15 AM 61.7 °F - 56.3 °F 82% 30.06 in 10.0 mi SE 3.5 mph - N/A   Clear
3:35 AM 61.2 °F - 55.9 °F 83% 30.06 in 10.0 mi SE 3.5 mph - N/A   Clear
3:55 AM 60.4 °F - 55.9 °F 85% 30.07 in 10.0 mi Calm Calm - N/A   Clear
4:15 AM 59.4 °F - 55.8 °F 88% 30.07 in 10.0 mi Calm Calm - N/A   Clear
4:35 AM 59.0 °F - 55.4 °F 88% 30.07 in 10.0 mi Calm Calm - N/A   Clear
4:55 AM 60.1 °F - 55.6 °F 85% 30.07 in 10.0 mi ESE 3.5 mph - N/A   Clear
5:15 AM 59.9 °F - 55.2 °F 84% 30.08 in 10.0 mi ESE 3.5 mph - N/A   Clear
5:35 AM 59.4 °F - 54.9 °F 85% 30.08 in 10.0 mi ESE 3.5 mph - N/A   Clear
5:55 AM 58.5 °F - 54.7 °F 87% 30.09 in 10.0 mi Calm Calm - N/A   Clear
6:15 AM 58.6 °F - 54.5 °F 86% 30.09 in 10.0 mi Calm Calm - N/A   Clear
6:35 AM 57.4 °F - 54.0 °F 88% 30.10 in 10.0 mi Calm Calm - N/A   Clear
6:55 AM 58.1 °F - 55.0 °F 90% 30.10 in 7.0 mi ESE 3.5 mph - N/A   Clear
7:15 AM 58.3 °F - 54.7 °F 88% 30.11 in 7.0 mi ESE 3.5 mph - N/A   Clear
7:35 AM 59.2 °F - 55.4 °F 87% 30.11 in 7.0 mi ESE 3.5 mph - N/A   Clear
7:55 AM 60.1 °F - 55.8 °F 86% 30.11 in 7.0 mi ESE 3.5 mph - N/A   Clear
8:15 AM 61.7 °F - 56.5 °F 83% 30.11 in 7.0 mi ESE 4.6 mph - N/A   Clear
8:35 AM 63.7 °F - 57.7 °F 81% 30.12 in 10.0 mi Calm Calm - N/A   Clear
8:55 AM 65.8 °F - 59.0 °F 79% 30.11 in 10.0 mi SE 3.5 mph - N/A   Clear
9:15 AM 68.2 °F - 59.9 °F 75% 30.12 in 10.0 mi SE 4.6 mph - N/A   Clear
9:35 AM 70.9 °F - 61.0 °F 71% 30.12 in 10.0 mi SE 5.8 mph - N/A   Clear
9:55 AM 72.7 °F - 61.3 °F 67% 30.11 in 10.0 mi SSE 5.8 mph - N/A   Clear
10:15 AM 74.8 °F - 61.7 °F 64% 30.12 in 10.0 mi SSE 5.8 mph - N/A   Clear
10:35 AM 76.3 °F - 62.2 °F 62% 30.12 in 10.0 mi SSE 6.9 mph - N/A   Clear
10:55 AM 77.2 °F - 62.1 °F 59% 30.11 in 10.0 mi SSE 6.9 mph - N/A   Clear
11:15 AM 78.6 °F - 61.2 °F 55% 30.11 in 10.0 mi SSE 9.2 mph - N/A   Clear
11:35 AM 79.9 °F - 61.3 °F 53% 30.10 in 10.0 mi SSE 8.1 mph - N/A   Clear
11:55 AM 80.8 °F 81.5 °F 60.4 °F 50% 30.10 in 10.0 mi SSE 8.1 mph - N/A   Mostly Cloudy
12:15 PM 80.6 °F 81.1 °F 59.2 °F 48% 30.09 in 10.0 mi SE 10.4 mph - N/A   Scattered Clouds
12:35 PM 81.3 °F 81.6 °F 58.8 °F 46% 30.08 in 10.0 mi ESE 10.4 mph 16.1 mph N/A   Clear
12:55 PM 81.3 °F 81.4 °F 58.3 °F 45% 30.08 in 10.0 mi SSE 9.2 mph 16.1 mph N/A   Clear
1:15 PM 81.7 °F 82.0 °F 59.5 °F 47% 30.07 in 10.0 mi SSE 9.2 mph - N/A   Clear
1:35 PM 82.2 °F 82.3 °F 58.6 °F 45% 30.06 in 10.0 mi ESE 9.2 mph - N/A   Clear
1:55 PM 82.4 °F 82.2 °F 58.1 °F 43% 30.05 in 10.0 mi SSE 9.2 mph - N/A   Clear
2:15 PM 82.4 °F 82.0 °F 57.4 °F 42% 30.05 in 10.0 mi SE 9.2 mph - N/A   Clear
2:35 PM 82.8 °F 82.2 °F 56.7 °F 41% 30.04 in 10.0 mi ESE 10.4 mph 19.6 mph N/A   Clear
2:55 PM 82.9 °F 82.1 °F 55.9 °F 39% 30.04 in 10.0 mi SE 11.5 mph 17.3 mph N/A   Clear
3:15 PM 82.9 °F 82.1 °F 55.8 °F 39% 30.03 in 10.0 mi ESE 11.5 mph 16.1 mph N/A   Clear
3:35 PM 82.8 °F 82.0 °F 55.4 °F 39% 30.03 in 10.0 mi SE 12.7 mph 16.1 mph N/A   Clear
3:55 PM 82.6 °F 81.8 °F 55.0 °F 39% 30.02 in 10.0 mi SSE 9.2 mph - N/A   Clear
4:15 PM 82.6 °F 81.6 °F 53.8 °F 37% 30.02 in 10.0 mi SSE 8.1 mph 16.1 mph N/A   Clear
4:35 PM 82.2 °F 81.6 °F 55.6 °F 40% 30.02 in 10.0 mi SSE 10.4 mph 16.1 mph N/A   Clear
4:55 PM 81.7 °F 81.0 °F 53.8 °F 38% 30.02 in 10.0 mi SE 8.1 mph - N/A   Clear
5:15 PM 81.1 °F 80.6 °F 53.4 °F 38% 30.02 in 10.0 mi SSE 10.4 mph 16.1 mph N/A   Clear
5:35 PM 80.2 °F 80.1 °F 53.8 °F 40% 30.02 in 10.0 mi SE 8.1 mph - N/A   Clear
5:55 PM 79.0 °F - 54.9 °F 43% 30.02 in 10.0 mi SE 6.9 mph - N/A   Clear
6:15 PM 77.5 °F - 55.2 °F 46% 30.02 in 10.0 mi SE 5.8 mph - N/A   Clear
6:35 PM 74.8 °F - 55.8 °F 51% 30.02 in 10.0 mi ESE 4.6 mph - N/A   Clear
6:55 PM 72.3 °F - 56.3 °F 57% 30.02 in 10.0 mi ESE 4.6 mph - N/A   Clear
7:15 PM 70.7 °F - 56.7 °F 61% 30.02 in 10.0 mi ESE 5.8 mph - N/A   Clear
7:35 PM 70.3 °F - 55.9 °F 60% 30.02 in 10.0 mi ESE 5.8 mph - N/A   Clear
7:55 PM 69.8 °F - 55.4 °F 60% 30.02 in 10.0 mi ESE 5.8 mph - N/A   Clear
8:15 PM 69.8 °F - 55.0 °F 59% 30.02 in 10.0 mi ESE 5.8 mph - N/A   Clear
8:35 PM 69.4 °F - 54.0 °F 58% 30.03 in 10.0 mi ESE 5.8 mph - N/A   Clear
8:55 PM 68.4 °F - 53.2 °F 58% 30.03 in 10.0 mi ESE 5.8 mph - N/A   Clear
9:15 PM 68.4 °F - 52.3 °F 57% 30.03 in 10.0 mi ESE 6.9 mph - N/A   Clear
9:35 PM 67.6 °F - 52.0 °F 57% 30.03 in 10.0 mi SE 5.8 mph - N/A   Clear
9:55 PM 67.1 °F - 51.8 °F 58% 30.03 in 10.0 mi ESE 5.8 mph - N/A   Clear
10:15 PM 67.1 °F - 51.8 °F 58% 30.03 in 10.0 mi SE 5.8 mph - N/A   Clear
10:35 PM 67.3 °F - 52.0 °F 58% 30.03 in 10.0 mi SE 5.8 mph - N/A   Clear
10:55 PM 66.4 °F - 52.0 °F 60% 30.03 in 10.0 mi SSE 4.6 mph - N/A   Clear
11:15 PM 64.9 °F - 52.3 °F 64% 30.04 in 10.0 mi SE 4.6 mph - N/A   Clear
11:35 PM 63.9 °F - 52.9 °F 67% 30.04 in 10.0 mi SSE 4.6 mph - N/A   Clear
11:55 PM 63.3 °F - 52.9 °F 69% 30.03 in 10.0 mi SE 5.8 mph - N/A   Clear